Weather reports worldwide

Advertisment
Weiden, Germany (10688): temperature & dewpoint: 01.08.2020 02:00:00 - 07.08.2020 02:00:00 (CEST)Weiden, Germany (10688): temperature 5cm & temperature -5cm: 01.08.2020 02:00:00 - 07.08.2020 02:00:00 (CEST)Weiden, Germany (10688): temperature -20cm & temperature -100cm: 01.08.2020 02:00:00 - 07.08.2020 02:00:00 (CEST)Weiden, Germany (10688): wind speed & gusts: 01.08.2020 02:00:00 - 07.08.2020 02:00:00 (CEST)Weiden, Germany (10688): wind direction: 01.08.2020 02:00:00 - 07.08.2020 02:00:00 (CEST)Weiden, Germany (10688): reduced air pressure: 01.08.2020 02:00:00 - 07.08.2020 02:00:00 (CEST)Weiden, Germany (10688): visibility: 01.08.2020 02:00:00 - 07.08.2020 02:00:00 (CEST)Weiden, Germany (10688): sunshine duration: 01.08.2020 02:00:00 - 07.08.2020 02:00:00 (CEST)Weiden, Germany (10688): precipitation: 01.08.2020 02:00:00 - 07.08.2020 02:00:00 (CEST)
Date & Time tt [°C] td [°C] tt 5cm [°C] tt -5cm [°C] tt -20cm [°C] tt -100cm [°C] ff [km/h] ff [kn] fx [km/h] fx [kn] dd ppp [hPa] vv [km] sd [min] rr [mm]
07.08.2020 02:00:00 16,6 12,6 11,9 18,3 20,6 18,0 2 1 8 4 W 1022,0 50 0 0,0
07.08.2020 01:00:00 17,7 12,4 12,7 18,8 21,0 18,0 3 2 6 4 ESE 1021,7 53 0 0,0
07.08.2020 00:00:00 18,7 12,7 13,1 19,5 21,3 18,0 2 1 6 3 NNW 1021,4 49 0 0,0
06.08.2020 23:00:00 20,0 12,0 13,7 20,4 21,6 18,0 3 1 8 5 NNE 1020,9 55 0 0,0
06.08.2020 22:00:00 21,7 11,8 15,0 21,4 21,9 18,0 4 2 13 7 E 1020,4 49 0 0,0
06.08.2020 21:00:00 22,9 11,5 17,0 22,6 22,1 18,1 6 3 16 8 E 1019,6 60 20 0,0
06.08.2020 20:00:00 25,1 11,6 22,9 23,9 22,1 18,1 7 4 21 11 E 1019,0 32 60 0,0
06.08.2020 19:00:00 26,3 11,6 26,8 25,3 22,0 18,1 10 5 23 12 E 1018,5 58 60 0,0
06.08.2020 18:00:00 27,2 12,8 28,7 26,4 21,7 18,1 8 4 17 9 ENE 1018,2 62 60 0,0
06.08.2020 17:00:00 27,1 11,9 28,5 27,0 21,2 18,1 5 3 23 13 NNE 1018,5 59 60 0,0
06.08.2020 16:00:00 26,5 11,8 29,4 27,3 20,6 18,1 9 5 24 13 E 1018,8 47 60 0,0
06.08.2020 15:00:00 26,2 12,5 30,5 27,0 19,9 18,1 7 4 22 12 E 1019,1 58 60 0,0
06.08.2020 14:00:00 24,8 10,8 29,8 26,2 19,2 18,1 11 6 25 14 E 1019,8 50 60 0,0
06.08.2020 13:00:00 24,5 10,6 30,5 24,9 18,5 18,1 6 3 24 13 NE 1020,3 38 60 0,0
06.08.2020 12:00:00 23,8 11,3 29,3 23,2 17,9 18,2 8 4 18 10 ENE 1020,6 47 60 0,0
06.08.2020 11:00:00 21,5 11,1 26,8 21,2 17,4 18,2 6 4 11 6 NW 1021,0 65 59 0,0
06.08.2020 10:00:00 19,2 11,5 24,7 18,6 17,1 18,2 5 3 9 5 W 1021,5 44 60 0,0
06.08.2020 09:00:00 16,1 10,2 21,3 16,2 17,0 18,2 3 2 7 4 NW 1022,0 39 60 0,0
06.08.2020 08:00:00 13,8 9,0 15,6 14,6 17,2 18,2 2 1 7 4 N 1021,9 41 60 0,0
06.08.2020 07:00:00 11,7 8,9 12,2 13,8 17,5 18,2 2 1 6 3 W 1022,0 32 15 0,0
06.08.2020 06:00:00 10,7 9,7 7,3 13,9 17,8 18,2 4 2 6 3 NE 1022,1 34 0 0,0
06.08.2020 05:00:00 10,8 9,7 7,0 14,4 18,1 18,2 3 2 7 4 SSE 1022,0 32 0 0,0
06.08.2020 04:00:00 11,2 9,8 7,7 14,9 18,5 18,2 4 2 6 3 SSW 1021,5 39 0 0,0
06.08.2020 03:00:00 11,8 10,0 8,1 15,4 18,8 18,2 5 3 7 4 WSW 1021,2 46 0 0,0
06.08.2020 02:00:00 12,4 10,3 8,6 16,0 19,2 18,3 3 2 4 2 WNW 1021,0 50 0 0,0
06.08.2020 01:00:00 13,5 10,4 9,1 16,7 19,5 18,3 2 1 7 4 NNE 1020,8 51 0 0,0
06.08.2020 00:00:00 14,9 10,5 9,8 17,4 19,9 18,3 2 1 8 4 N 1020,6 52 0 0,0
05.08.2020 23:00:00 16,3 10,3 12,0 18,2 20,2 18,3 6 4 14 8 ESE 1020,1 61 0 0,0
05.08.2020 22:00:00 18,9 9,6 14,3 19,1 20,5 18,3 9 5 15 8 ESE 1019,5 71 0 0,0
05.08.2020 21:00:00 19,6 8,7 14,3 20,3 20,6 18,3 8 4 11 6 ESE 1018,7 67 21 0,0
05.08.2020 20:00:00 21,7 8,2 19,4 21,6 20,7 18,4 5 3 13 7 E 1018,0 56 60 0,0
05.08.2020 19:00:00 23,6 8,5 23,7 22,6 20,6 18,4 3 2 17 9 ESE 1017,4 51 60 0,0
05.08.2020 18:00:00 23,4 8,6 25,5 23,1 20,4 18,4 5 3 17 9 ENE 1017,6 55 33 0,0
05.08.2020 17:00:00 23,2 7,9 26,0 23,6 20,1 18,4 8 5 13 7 NW 1017,8 48 28 0,1
05.08.2020 16:00:00 21,8 8,9 23,4 24,2 19,8 18,4 5 3 24 13 NNE 1018,1 61 32 0,1
05.08.2020 15:00:00 20,9 8,9 22,3 24,0 19,3 18,5 4 2 12 6 W 1018,7 48 15 0,0
05.08.2020 14:00:00 21,0 10,1 24,5 24,2 18,7 18,5 7 4 14 7 SE 1019,0 58 37 0,0
05.08.2020 13:00:00 20,6 9,3 27,2 23,7 18,0 18,5 6 3 13 7 WNW 1019,3 64 58 0,0
05.08.2020 12:00:00 18,2 10,9 24,8 21,7 17,4 18,5 4 2 13 7 WSW 1020,0 42 60 0,0
05.08.2020 11:00:00 15,8 12,1 22,9 18,9 17,1 18,5 6 3 12 7 SSW 1020,5 23 38 0,0
05.08.2020 10:00:00 12,2 10,7 17,1 16,5 16,9 18,5 3 2 9 5 NW 1021,3 8 0 0,0
05.08.2020 09:00:00 11,5 11,0 13,9 15,6 16,9 18,6 4 2 6 4 W 1021,4 0,4 0 0,0
05.08.2020 08:00:00 11,7 11,6 13,7 14,8 17,0 18,6 4 2 6 4 S 1021,3 0,5 0 0,0
05.08.2020 07:00:00 10,7 10,5 11,7 14,3 17,2 18,6 2 1 4 2 NNW 1021,4 2,1 0 0,0
05.08.2020 06:00:00 10,2 10,0 10,7 13,9 17,4 18,6 3 1 5 3 NW 1020,9 0,3 0 0,0
05.08.2020 05:00:00 9,9 9,8 7,4 13,9 17,7 18,6 3 2 7 4 E 1020,9 0,4 0 0,0
05.08.2020 04:00:00 10,6 10,3 7,3 14,4 18,0 18,6 2 1 5 3 SSW 1020,4 10 0 0,0
05.08.2020 03:00:00 11,0 10,7 7,2 15,0 18,3 18,7 2 1 9 5 ENE 1020,1 0,7 0 0,0
05.08.2020 02:00:00 12,1 11,4 9,7 15,7 18,6 18,7 5 3 15 8 SSE 1019,9 19 0 0,0
05.08.2020 01:00:00 12,4 11,6 10,6 16,2 18,8 18,7 9 5 13 7 SE 1019,8 17 0 0,0
05.08.2020 00:00:00 13,0 12,0 11,0 16,9 19,1 18,7 5 3 11 6 SSE 1019,5 22 0 0,0
04.08.2020 23:00:00 13,5 12,3 13,2 17,3 19,3 18,7 6 3 12 7 SSE 1019,2 29 0 0,0
04.08.2020 22:00:00 14,0 12,6 13,7 17,8 19,5 18,7 5 3 12 7 SE 1019,0 31 0 0,0
04.08.2020 21:00:00 14,2 12,5 13,9 18,4 19,6 18,7 7 4 11 6 SE 1018,6 27 0 0,0
04.08.2020 20:00:00 14,7 12,7 15,0 19,0 19,7 18,8 4 2 11 6 S 1017,7 28 0 0,0
04.08.2020 19:00:00 14,8 12,1 15,6 19,5 19,8 18,8 6 3 20 11 SSW 1017,2 33 0 0,0
04.08.2020 18:00:00 16,1 12,0 16,6 20,6 19,7 18,8 6 4 17 9 WSW 1016,3 36 0 0,0
04.08.2020 17:00:00 17,6 9,9 18,9 21,7 19,4 18,8 5 3 19 10 NNE 1015,6 45 0 0,0
04.08.2020 16:00:00 17,4 9,9 20,7 20,9 19,2 18,8 8 4 18 10 NNW 1015,4 41 0 0,0
04.08.2020 15:00:00 16,3 10,5 18,0 20,0 19,0 18,8 9 5 19 10 NNE 1015,5 48 0 0,0
04.08.2020 14:00:00 15,5 11,4 18,6 19,5 18,8 18,8 5 3 18 10 N 1015,4 37 0 0,0
04.08.2020 13:00:00 14,9 11,4 16,2 19,1 18,7 18,9 9 5 21 12 N 1015,0 28 0 0,0
04.08.2020 12:00:00 14,9 12,9 16,8 18,5 18,6 18,9 7 4 16 9 N 1014,2 19 0 0,3
04.08.2020 11:00:00 14,1 12,2 16,1 17,5 18,6 18,9 9 5 16 8 N 1013,7 19 0 0,7
04.08.2020 10:00:00 13,2 11,8 14,3 16,8 18,6 18,9 7 4 15 8 N 1013,2 15 0 0,3
04.08.2020 09:00:00 12,7 11,5 13,4 16,5 18,8 18,9 6 3 14 7 N 1012,8 17 0 0,6
04.08.2020 08:00:00 12,3 10,8 12,7 16,4 18,9 18,9 5 3 8 4 N 1012,3 16 0 0,5
04.08.2020 07:00:00 12,4 11,6 12,9 16,4 19,1 18,9 3 1 7 4 N 1011,5 13 0 0,3
04.08.2020 06:00:00 12,4 11,2 12,6 16,6 19,3 18,9 4 2 8 5 NNW 1011,0 25 0 0,8
04.08.2020 05:00:00 12,6 11,1 12,8 16,9 19,5 18,9 4 2 8 4 N 1010,6 12 0 1,0
04.08.2020 04:00:00 12,9 11,8 13,2 17,1 19,7 18,9 3 1 6 3 N 1010,5 12 0 0,4
04.08.2020 03:00:00 13,5 11,5 13,4 17,3 19,9 18,9 0 0 7 4 N 1010,3 25 0 0,1
04.08.2020 02:00:00 14,4 11,0 13,4 17,4 20,1 18,9 5 3 12 6 NW 1010,0 25 0 0,0
04.08.2020 01:00:00 15,1 9,8 14,0 17,6 20,4 18,9 6 4 18 10 N 1009,8 47 0 0,0
04.08.2020 00:00:00 15,4 9,9 14,1 18,0 20,7 18,9 11 6 19 10 NNE 1009,7 51 0 0,0
03.08.2020 23:00:00 15,9 10,5 14,7 18,5 21,0 18,9 9 5 19 10 N 1009,8 50 0 0,0
03.08.2020 22:00:00 16,1 11,5 14,9 19,0 21,2 19,0 9 5 16 8 NNE 1009,7 38 0 0,0
03.08.2020 21:00:00 16,6 11,5 15,5 19,6 21,5 19,0 8 4 20 11 NNE 1009,1 41 0 0,0
03.08.2020 20:00:00 17,2 11,3 16,6 20,4 21,7 19,0 10 6 26 14 N 1009,0 46 0 0,0
03.08.2020 19:00:00 17,3 11,5 17,6 21,2 21,8 19,0 16 9 32 17 N 1009,2 41 0 0,0
03.08.2020 18:00:00 17,4 12,2 18,4 22,1 21,8 19,0 18 10 32 17 NNE 1009,4 34 0 0,0
03.08.2020 17:00:00 18,0 12,1 20,0 23,1 21,7 19,0 16 9 32 17 NNE 1009,6 39 6 0,0
03.08.2020 16:00:00 18,3 12,5 20,4 23,3 21,6 19,0 16 8 28 15 N 1009,5 41 1 0,0
03.08.2020 15:00:00 19,2 12,9 24,8 23,2 21,4 19,0 17 9 27 14 NNE 1010,2 36 17 0,0
03.08.2020 14:00:00 18,4 13,7 20,8 22,5 21,2 19,0 13 7 22 12 N 1010,5 42 0 0,0
03.08.2020 13:00:00 17,9 13,2 21,2 21,9 21,1 19,0 12 7 22 12 NNE 1011,0 31 0 0,0
03.08.2020 12:00:00 16,8 13,4 18,8 21,3 21,0 18,9 15 8 23 13 N 1011,4 26 4 0,0
03.08.2020 11:00:00 17,0 14,4 18,5 20,4 21,1 18,9 10 5 17 9 N 1011,5 17 0 0,0
03.08.2020 10:00:00 16,5 14,4 18,0 20,1 21,2 18,9 8 4 19 10 N 1011,6 13 0 0,0
03.08.2020 09:00:00 16,2 14,7 17,1 19,6 21,3 18,9 9 5 17 9 NNE 1011,4 9 0 0,1
03.08.2020 08:00:00 16,2 15,4 16,5 19,6 21,5 18,9 7 4 13 7 NNE 1011,4 6 0 0,1
03.08.2020 07:00:00 16,3 15,4 16,6 19,7 21,7 18,9 5 3 12 7 NNW 1011,4 8 0 0,4
03.08.2020 06:00:00 16,6 15,8 16,8 20,0 21,9 18,9 5 3 9 5 NNW 1011,3 10 0 0,1
03.08.2020 05:00:00 16,8 16,3 17,1 20,2 22,1 18,9 3 1 8 4 NNW 1011,3 8 0 0,0
03.08.2020 04:00:00 17,0 16,5 17,0 20,4 22,3 18,9 2 1 7 4 NW 1011,7 8 0 0,2
03.08.2020 03:00:00 17,1 16,5 17,3 20,7 22,5 18,9 3 2 6 4 N 1012,1 11 0 0,0
03.08.2020 02:00:00 17,3 16,8 17,9 20,9 22,8 18,9 2 1 4 2 N 1012,3 6 0 0,0
03.08.2020 01:00:00 17,1 16,7 17,1 21,1 23,1 18,8 3 1 4 2 E 1012,5 2,8 0 0,0
03.08.2020 00:00:00 17,4 16,8 17,8 21,5 23,4 18,8 2 1 10 5 NW 1012,4 7 0 1,9
02.08.2020 23:00:00 17,3 16,6 18,1 21,9 23,7 18,8 2 1 11 6 ENE 1012,5 17 0 3,2
02.08.2020 22:00:00 18,0 17,0 18,3 22,8 24,0 18,8 6 4 9 5 WNW 1012,4 10 0 1,4
02.08.2020 21:00:00 19,1 18,5 19,3 23,4 24,2 18,8 3 2 10 5 E 1012,2 5 0 0,0
02.08.2020 20:00:00 19,6 18,4 20,1 24,1 24,4 18,8 4 2 8 4 WSW 1011,8 17 0 0,0
02.08.2020 19:00:00 20,0 18,9 21,2 24,5 24,7 18,8 3 1 4 2 S 1012,0 16 0 0,1
02.08.2020 18:00:00 20,1 18,4 20,5 25,2 24,9 18,8 3 2 9 5 E 1011,9 18 0 0,1
02.08.2020 17:00:00 20,0 18,2 21,3 25,6 25,1 18,8 3 2 7 4 SSE 1012,5 18 0 0,5
02.08.2020 16:00:00 19,4 18,1 20,9 26,6 25,2 18,7 5 3 39 21 ESE 1012,7 12 0 2,7
02.08.2020 15:00:00 22,8 15,2 20,0 29,3 25,0 18,7 14 8 34 18 WSW 1011,2 27 0 0,1
02.08.2020 14:00:00 27,6 13,0 32,0 30,3 24,6 18,7 14 8 27 14 NW 1010,0 52 30 0,0
02.08.2020 13:00:00 27,0 13,8 30,2 29,9 24,1 18,7 14 8 28 15 NW 1010,7 46 20 0,0
02.08.2020 12:00:00 26,8 14,3 32,9 28,3 23,7 18,7 9 5 22 12 NW 1010,9 52 41 0,0
02.08.2020 11:00:00 25,2 15,8 28,3 26,8 23,5 18,7 6 3 21 11 S 1011,1 33 32 0,0
02.08.2020 10:00:00 24,4 15,3 29,2 25,4 23,4 18,7 8 4 18 10 S 1011,2 36 60 0,0
02.08.2020 09:00:00 23,3 15,5 26,4 23,8 23,4 18,6 6 3 16 9 S 1011,1 33 60 0,0
02.08.2020 08:00:00 21,9 15,4 22,6 22,6 23,6 18,6 5 3 12 7 SSE 1011,7 34 46 0,0
02.08.2020 07:00:00 20,2 15,4 17,8 22,4 23,9 18,6 5 3 14 8 SE 1012,0 40 2 0,0
02.08.2020 06:00:00 20,8 14,6 17,9 22,9 24,1 18,6 8 4 16 9 SE 1011,7 44 0 0,0
02.08.2020 05:00:00 21,6 14,0 19,2 23,4 24,4 18,6 4 2 18 10 W 1011,5 49 0 0,0
02.08.2020 04:00:00 21,8 13,7 19,4 23,8 24,7 18,6 4 2 26 14 SSE 1011,7 44 0 0,0
02.08.2020 03:00:00 22,4 12,9 20,3 24,3 25,0 18,6 8 4 16 9 WSW 1011,4 44 0 0,0
02.08.2020 02:00:00 23,0 12,5 21,0 24,8 25,2 18,5 11 6 17 9 NE 1011,2 48 0 0,0
02.08.2020 01:00:00 24,8 11,7 22,2 25,3 25,5 18,5 7 4 12 7 N 1011,4 45 0 0,0
02.08.2020 00:00:00 26,1 10,2 22,0 25,8 25,8 18,5 4 2 16 9 E 1010,8 41 0 0,0
01.08.2020 23:00:00 26,4 10,6 21,6 26,6 26,1 18,5 3 2 17 9 SSW 1010,8 45 0 0,0
01.08.2020 22:00:00 26,6 10,9 21,6 27,4 26,4 18,5 4 2 12 7 WSW 1010,9 47 0 0,0
01.08.2020 21:00:00 26,6 10,4 21,6 28,5 26,6 18,5 6 3 11 6 E 1010,5 50 1 0,0
01.08.2020 20:00:00 29,6 7,7 21,7 30,2 26,6 18,5 2 1 15 8 W 1010,0 55 20 0,0
01.08.2020 19:00:00 32,8 7,0 33,0 32,0 26,4 18,5 13 7 26 14 W 1009,8 75 60 0,0
01.08.2020 18:00:00 33,3 6,4 34,8 32,9 26,0 18,5 11 6 22 12 W 1010,2 67 60 0,0
01.08.2020 17:00:00 33,8 6,3 34,7 33,3 25,4 18,5 7 4 24 13 W 1010,4 58 60 0,0
01.08.2020 16:00:00 33,0 9,2 35,9 33,3 24,8 18,5 6 3 21 11 WSW 1010,9 54 60 0,0
01.08.2020 15:00:00 32,7 8,9 36,1 32,9 24,1 18,5 6 3 21 11 E 1011,3 49 60 0,0
01.08.2020 14:00:00 31,9 10,7 35,9 32,0 23,3 18,5 6 3 23 12 E 1012,2 44 60 0,0
01.08.2020 13:00:00 30,8 10,7 35,8 30,3 22,6 18,4 4 2 14 8 N 1013,2 54 60 0,0
01.08.2020 12:00:00 28,1 10,2 33,7 28,2 22,0 18,4 8 4 14 7 W 1013,7 41 60 0,0
01.08.2020 11:00:00 26,9 12,5 32,2 25,8 21,6 18,4 6 3 10 5 NW 1014,0 45 60 0,0
01.08.2020 10:00:00 24,1 12,0 28,8 23,2 21,4 18,4 3 2 10 5 NNW 1014,5 58 60 0,0
01.08.2020 09:00:00 20,6 11,2 24,7 21,1 21,4 18,4 4 2 8 4 N 1015,3 58 60 0,0
01.08.2020 08:00:00 17,7 9,8 20,7 19,6 21,6 18,4 2 1 5 3 NNW 1016,0 48 60 0,0
01.08.2020 07:00:00 16,4 10,3 15,5 18,7 22,0 18,4 0 0 5 3 N 1016,5 56 22 0,0
01.08.2020 06:00:00 15,0 10,5 9,8 19,0 22,4 18,4 3 1 7 4 WNW 1016,8 54 0 0,0
01.08.2020 05:00:00 15,8 10,5 10,0 19,6 22,8 18,3 0 0 8 4 N 1016,5 59 0 0,0
01.08.2020 04:00:00 16,4 10,7 10,9 20,3 23,2 18,3 4 2 8 4 N 1016,6 47 0 0,0
01.08.2020 03:00:00 17,3 10,6 11,0 21,1 23,6 18,3 3 2 8 4 NNW 1016,8 61 0 0,0
01.08.2020 02:00:00 19,0 10,4 12,4 22,0 24,1 18,3 3 2 15 8 N 1016,8 48 0 0,0

tt = temperature
td = dewpoint
tt 5cm = temperature 5cm
tt -5cm = temperature -5cm
tt -20cm = temperature -20cm
tt -100cm = temperature -100cm
ff = wind speed
fx = gusts
dd = wind direction
ppp = reduced air pressure
vv = visibility
sd = sunshine duration
rr = precipitation

Next stations